Location: Red Rock Canyon
(36.1333°N, 115.4333°W)
Time: 12:13:41
(UTC-07:00)

ISS - Visible Passes

Search period start: 03 September 2015 00:00
Search period end: 13 September 2015 00:00
Orbit: 400 x 403 km, 51.6° (Epoch: 01 September)

Date Brightness Start Highest point End Pass type
(mag) Time Alt. Az. Time Alt. Az. Time Alt. Az.
05 Sep -0.4 05:39:58 10° SSE 05:41:27 13° SE 05:43:04 10° E visible
07 Sep -1.8 05:28:09 10° SSW 05:31:05 32° SE 05:34:04 10° ENE visible
08 Sep -0.8 04:36:48 13° SSE 04:37:57 15° SE 04:40:00 10° E visible
09 Sep -3.4 05:18:46 21° SW 05:20:49 90° SSE 05:24:06 10° NE visible
10 Sep -2.1 04:28:00 37° ESE 04:28:00 37° ESE 04:30:40 10° ENE visible
11 Sep -2.4 05:09:45 29° WNW 05:10:42 35° NW 05:13:45 10° NNE visible
12 Sep -1.5 04:18:48 30° NE 04:18:48 30° NE 04:20:38 10° NE visible
12 Sep -0.9 05:52:52 10° NW 05:54:17 12° NNW 05:55:38 10° N visible
